Estación meteorológica de Mataró (Maresme, Maresme)

Consulta los datos en tiempo real de la estación meteorológica de Mataró





Hora UTC 12:40
Temperatura 30.1 ºC
Suelo 15 cm 41.4 ºC
Humedad 45.8 %
Presión 1021.5 hPa
Pluja 0.0 mm
Velocidad viento 13.9 km/h
Dirección viento SSE
Radiación solar 712.7 W/m²

Webcam

Datos diarios 2026-09-03



Hora UTC (invierno +1h; verano +2h)
Temperatura (ºC) Humedad (%) Presión (hPa) Velocidad viento (km/h) Precipitación (mm) Radiación solar (W/m²)
Hora UTC Aire Suelo 15 cm Humedad Presión Vel. Dir. Vel. Max Dir. Intent. máx 5 min. Rad. Sol.
00:05 24.5 22.5 48.3 1021.0 8.4 NNW 8.4 NNW 0.0 0.1
00:10 24.6 22.6 48.8 1021.0 8.7 NNW 12.4 NNW 0.0 0.1
00:15 25.0 22.7 48.7 1021.0 9.8 NNW 13.4 NNW 0.0 0.1
00:20 25.5 23.1 47.0 1021.0 10.0 NNW 13.8 NNW 0.0 0.1
00:25 25.6 23.5 46.6 1021.0 9.7 NW 12.0 NNW 0.0 0.1
00:30 25.6 23.7 46.5 1021.0 10.2 NNW 14.1 NNW 0.0 0.1
00:35 25.6 23.8 46.8 1021.0 10.8 NNW 13.8 NNW 0.0 0.1
00:40 25.8 24.0 46.6 1021.0 11.7 NNW 14.8 NNW 0.0 0.1
00:45 25.8 24.1 45.8 1020.9 9.4 NNW 13.1 NNW 0.0 0.1
00:50 25.5 24.1 45.9 1020.9 8.4 NNW 9.9 NNW 0.0 0.1
00:55 25.2 23.9 47.1 1021.0 8.6 NNW 10.2 NNW 0.0 0.1
01:00 24.9 23.7 49.0 1021.0 7.3 NW 9.5 NW 0.0 0.1
01:05 24.9 23.4 49.6 1020.9 7.4 NW 10.2 NNW 0.0 0.1
01:10 24.8 23.1 49.9 1020.8 6.4 NNW 8.8 NNW 0.0 0.1
01:15 24.5 22.8 50.5 1020.8 6.8 NNW 9.9 NNW 0.0 0.1
01:20 24.4 22.5 50.3 1020.9 7.1 NNW 10.6 NW 0.0 0.1
01:25 24.6 22.4 48.9 1020.9 8.6 NNW 13.1 NNW 0.0 0.1
01:30 24.8 22.5 48.1 1020.8 7.1 NNW 9.2 NNW 0.0 0.1
01:35 24.8 22.5 47.7 1020.7 9.3 NNW 15.2 NNW 0.0 0.1
01:40 25.3 22.8 47.0 1020.7 12.2 NNW 15.5 NNW 0.0 0.1
01:45 25.7 23.4 46.8 1020.8 13.1 NNW 19.1 NNW 0.0 0.1
01:50 26.0 24.0 47.2 1020.8 13.0 NNW 17.3 NW 0.0 0.1
01:55 26.1 24.5 47.1 1020.8 12.0 NNW 16.6 NNW 0.0 0.1
02:00 26.2 24.8 46.7 1020.8 12.6 NNW 18.0 NNW 0.0 0.1
02:05 26.2 25.0 46.2 1020.8 12.4 NNW 18.7 NW 0.0 0.1
02:10 26.3 25.1 46.0 1020.9 10.9 NNW 15.9 NW 0.0 0.1
02:15 26.3 25.1 45.4 1020.9 10.9 NNW 14.5 NNW 0.0 0.1
02:20 26.2 25.0 45.6 1020.9 10.1 NNW 14.1 NNW 0.0 0.1
02:25 26.2 25.0 45.8 1020.8 11.2 NNW 15.5 NNW 0.0 0.1
02:30 26.2 25.0 45.6 1020.8 9.9 NNW 15.9 NNW 0.0 0.1
02:35 26.3 25.0 45.4 1020.8 11.0 NNW 14.5 NNW 0.0 0.1
02:40 26.2 24.9 45.7 1020.8 6.5 NNW 8.1 NNW 0.0 0.1
02:45 25.8 24.7 47.3 1020.8 5.9 NNW 9.5 NNW 0.0 0.1
02:50 25.7 24.5 49.2 1020.7 6.4 N 8.5 N 0.0 0.1
02:55 25.9 24.3 48.9 1020.7 5.6 N 7.1 N 0.0 0.1
03:00 26.1 24.3 48.5 1020.7 5.8 NNE 8.1 N 0.0 0.1
03:05 26.2 24.4 48.2 1020.7 6.7 NNE 9.2 NNE 0.0 0.1
03:10 26.4 24.7 47.8 1020.7 8.3 N 10.6 N 0.0 0.1
03:15 26.5 25.0 47.7 1020.7 8.0 NNE 10.9 N 0.0 0.1
03:20 26.5 25.1 48.0 1020.6 6.3 NNE 8.1 N 0.0 0.1
03:25 26.5 25.2 48.0 1020.6 4.3 NNE 6.4 NNE 0.0 0.1
03:30 26.6 25.2 47.9 1020.6 3.7 NE 5.6 NE 0.0 0.1
03:35 26.6 24.9 48.0 1020.7 3.0 NNE 4.9 NNE 0.0 0.1
03:40 26.2 24.4 49.0 1020.6 3.0 NNE 6.0 NE 0.0 0.1
03:45 26.0 23.9 49.4 1020.6 3.0 NNE 4.6 NNE 0.0 0.1
03:50 26.0 23.5 49.1 1020.5 1.6 NE 3.2 NE 0.0 0.1
03:55 26.0 23.0 49.1 1020.5 1.2 NNE 2.5 NE 0.0 0.1
04:00 25.8 22.8 49.6 1020.5 1.6 N 3.5 NNE 0.0 0.1
04:05 25.6 22.7 50.3 1020.5 0.8 N 3.2 NNW 0.0 0.1
04:10 25.2 22.5 51.4 1020.4 3.5 NNW 4.9 NNW 0.0 0.1
04:15 25.2 22.5 51.4 1020.4 2.4 NNW 3.9 NNW 0.0 0.1
04:20 25.2 22.5 51.1 1020.4 2.2 NNW 3.2 NNW 0.0 0.1
04:25 25.3 22.3 51.0 1020.5 0.6 NNW 1.8 NNW 0.0 0.1
04:30 25.2 22.0 51.1 1020.5 0.7 NNW 2.5 NNW 0.0 0.1
04:35 25.0 21.7 51.6 1020.5 1.7 NNW 2.5 NNW 0.0 0.1
04:40 25.0 21.6 51.6 1020.5 0.6 N 1.8 N 0.0 0.1
04:45 24.9 21.4 51.8 1020.5 0.1 N 1.1 N 0.0 0.1
04:50 25.0 21.1 51.5 1020.6 0.0 NNE 0.0 N 0.0 0.1
04:55 24.9 20.7 51.8 1020.6 0.0 NNE 0.0 N 0.0 0.2
05:00 24.8 20.5 52.1 1020.6 0.0 NNE 0.0 N 0.0 0.4
05:05 24.7 20.4 52.3 1020.6 0.0 NNE 0.0 N 0.0 1.0
05:10 24.7 20.4 52.2 1020.6 0.0 NNE 0.0 ENE 0.0 1.9
05:15 24.6 20.3 52.7 1020.7 0.0 NNE 0.0 ENE 0.0 3.2
05:20 24.5 20.4 52.8 1020.8 0.0 NNE 0.0 ENE 0.0 5.3
05:25 24.6 20.5 52.6 1020.8 0.0 NNE 0.0 ENE 0.0 8.0
05:30 24.5 20.6 52.9 1020.8 0.0 NNE 0.0 ENE 0.0 11.1
05:35 24.4 20.7 52.9 1020.9 0.0 NNE 0.0 ENE 0.0 14.2
05:40 24.5 20.8 52.8 1021.0 0.0 NNE 0.0 ENE 0.0 17.3
05:45 24.7 21.1 52.5 1021.0 0.3 ENE 1.8 ENE 0.0 20.4
05:50 24.7 21.4 52.8 1021.1 0.2 ENE 1.8 ENE 0.0 23.9
05:55 24.7 21.7 53.0 1021.1 0.3 NNW 2.8 NNW 0.0 26.5
06:00 24.6 22.0 53.2 1021.1 2.8 N 3.9 NNW 0.0 47.1
06:05 24.8 22.5 52.4 1021.2 2.0 N 2.5 N 0.0 90.8
06:10 25.1 23.4 51.4 1021.3 2.2 N 3.5 NNW 0.0 103.9
06:15 25.2 24.7 51.3 1021.3 0.0 NNE 0.0 NNE 0.0 117.2
06:20 25.5 25.9 51.0 1021.3 0.0 NNE 0.0 NNE 0.0 130.5
06:25 25.7 27.2 50.6 1021.4 0.0 NNE 0.0 NNE 0.0 143.7
06:30 26.0 28.5 49.5 1021.4 0.2 SE 2.8 ESE 0.0 157.2
06:35 26.5 29.6 48.2 1021.5 1.4 E 3.5 ESE 0.0 170.7
06:40 26.9 30.6 47.0 1021.6 2.6 ENE 5.6 E 0.0 184.3
06:45 27.3 31.4 46.6 1021.7 1.7 E 4.6 SE 0.0 198.1
06:50 27.6 32.0 46.1 1021.7 3.3 ESE 5.6 ESE 0.0 211.9
06:55 27.8 32.5 45.9 1021.7 3.9 SE 6.4 ESE 0.0 225.5
07:00 27.9 32.9 45.9 1021.7 3.9 SE 9.2 SE 0.0 239.3
07:05 27.9 33.1 46.4 1021.8 4.0 SSE 5.6 ESE 0.0 253.0
07:10 28.0 33.4 46.6 1021.7 3.4 SSE 6.7 SSE 0.0 266.4
07:15 28.1 33.7 46.9 1021.8 4.1 S 7.1 S 0.0 280.2
07:20 28.0 33.9 47.4 1021.8 3.5 SE 6.4 SE 0.0 294.1
07:25 28.2 34.1 47.4 1021.8 4.7 SE 7.1 SE 0.0 307.7
07:30 28.3 34.4 47.3 1021.9 5.4 SE 9.5 SSE 0.0 321.1
07:35 28.3 34.8 48.2 1021.9 5.5 SSE 10.2 S 0.0 334.5
07:40 28.3 35.2 48.2 1021.8 6.5 SSE 9.9 SSE 0.0 347.8
07:45 28.5 35.5 47.0 1021.8 6.1 SSE 10.2 SSE 0.0 360.7
07:50 28.4 35.6 46.5 1021.9 6.5 SSE 9.9 SSE 0.0 373.7
07:55 28.4 35.7 46.3 1021.9 7.9 SE 11.6 SSE 0.0 386.7
08:00 28.5 35.7 45.0 1021.9 7.3 SSE 12.7 SSW 0.0 400.2
08:05 28.7 35.8 44.4 1021.9 6.7 ESE 10.2 SSE 0.0 412.7
08:10 28.7 35.9 44.9 1021.9 7.5 SSE 13.4 SSE 0.0 425.0
08:15 28.6 36.1 44.4 1021.9 7.7 SSE 12.7 SSE 0.0 437.2
08:20 28.5 36.2 45.7 1022.0 7.9 S 12.7 S 0.0 449.3
08:25 28.5 36.4 47.4 1022.0 7.0 SSE 11.6 S 0.0 461.9
08:30 28.5 36.6 47.8 1022.0 8.8 SSE 15.9 SSE 0.0 474.2
08:35 28.5 36.6 48.7 1022.1 8.3 SSE 13.1 SSE 0.0 485.8
08:40 28.5 36.8 48.7 1022.1 7.6 SSE 11.6 SSE 0.0 466.2
08:45 28.6 37.0 48.6 1022.2 7.1 S 11.3 S 0.0 508.6
08:50 28.5 37.1 48.9 1022.2 6.8 SSE 9.5 SSE 0.0 520.3
08:55 28.6 37.4 47.9 1022.2 5.9 SSE 9.5 SSE 0.0 531.1
09:00 29.0 37.9 45.1 1022.2 5.6 S 11.3 SSW 0.0 542.6
09:05 29.1 38.3 46.1 1022.3 6.2 SE 10.9 SE 0.0 553.0
09:10 29.2 38.4 45.1 1022.4 9.8 SE 16.6 SE 0.0 563.4
09:15 28.9 38.2 44.8 1022.4 8.5 SE 12.7 SSE 0.0 573.0
09:20 29.0 38.2 44.4 1022.4 9.5 SE 15.2 SSE 0.0 583.0
09:25 29.1 38.1 47.7 1022.5 9.6 SE 15.5 SSE 0.0 590.2
09:30 29.0 38.2 51.0 1022.5 8.0 SE 14.5 SE 0.0 598.6
09:35 28.9 38.2 53.2 1022.6 9.5 SE 15.5 SE 0.0 606.0
09:40 28.8 38.1 56.0 1022.5 8.2 SE 13.8 SSE 0.0 613.9
09:45 28.8 38.2 57.4 1022.5 8.9 SE 16.2 SE 0.0 622.3
09:50 28.8 38.4 58.6 1022.5 9.0 SE 13.8 SSE 0.0 628.9
09:55 28.7 38.6 58.9 1022.5 9.6 SE 13.8 SSE 0.0 638.9
10:00 28.7 38.5 59.0 1022.5 10.9 SE 15.9 SSE 0.0 645.5
10:05 28.7 38.6 57.3 1022.5 9.8 S 16.2 S 0.0 653.2
10:10 28.8 38.9 58.4 1022.4 9.5 SSE 15.9 S 0.0 659.6
10:15 29.0 39.1 57.5 1022.4 9.5 S 17.3 S 0.0 665.9
10:20 29.1 39.4 57.5 1022.4 10.8 SSW 17.6 S 0.0 671.1
10:25 28.8 39.2 57.5 1022.4 11.5 SSW 17.3 S 0.0 679.6
10:30 28.8 39.0 58.7 1022.3 10.0 SSW 16.2 SSW 0.0 684.3
10:35 29.1 39.1 59.4 1022.2 10.2 S 18.4 SSE 0.0 691.0
10:40 29.0 39.3 60.3 1022.2 11.0 S 19.1 SSE 0.0 695.0
10:45 29.0 39.4 61.4 1022.2 10.9 SSE 20.8 SE 0.0 699.1
10:50 29.0 39.5 60.5 1022.2 12.4 SSE 19.4 SSE 0.0 703.3
10:55 28.8 39.7 61.4 1022.1 11.1 SSE 18.4 SE 0.0 706.3
11:00 29.3 39.9 56.7 1022.0 9.3 SSW 17.6 S 0.0 712.1
11:05 29.6 40.4 52.7 1022.1 9.0 S 18.7 SSW 0.0 716.6
11:10 29.6 40.3 50.6 1022.1 12.4 S 21.2 SSE 0.0 720.5
11:15 29.6 40.2 52.1 1022.0 12.9 S 20.8 SSW 0.0 722.3
11:20 29.6 40.1 52.5 1021.9 10.8 S 20.1 SSW 0.0 725.1
11:25 29.7 40.2 50.9 1022.0 13.4 S 21.2 S 0.0 726.9
11:30 29.4 40.1 53.6 1022.0 11.4 S 18.4 SSE 0.0 727.9
11:35 29.3 40.2 52.9 1021.9 10.4 S 20.1 SE 0.0 729.1
11:40 29.6 40.5 48.9 1021.8 10.6 SSW 18.4 SSW 0.0 730.9
11:45 29.7 40.7 48.8 1021.8 11.1 SSW 21.2 S 0.0 733.9
11:50 29.6 41.0 47.9 1021.8 11.6 S 18.0 S 0.0 733.6
11:55 29.6 41.0 50.1 1021.7 9.8 S 19.4 SSE 0.0 732.7
12:00 29.7 40.8 48.7 1021.7 10.0 S 16.6 S 0.0 729.4
12:05 29.7 40.9 50.5 1021.7 9.5 S 16.9 SSW 0.0 727.3
12:10 29.9 41.0 49.5 1021.7 11.0 S 20.5 SSE 0.0 724.4
12:15 29.8 41.0 49.5 1021.6 11.6 S 22.6 S 0.0 725.8
12:20 30.0 41.0 46.3 1021.6 12.0 SSW 21.2 S 0.0 726.2
12:25 30.0 40.9 49.9 1021.7 7.6 S 15.9 SSE 0.0 720.2
12:30 30.2 41.2 48.3 1021.6 10.9 S 19.8 SSE 0.0 717.1
12:35 30.1 41.3 48.5 1021.5 9.3 S 18.7 SE 0.0 713.6
12:40 30.1 41.4 45.8 1021.5 13.9 SSE 21.5 SSE 0.0 712.7
Máxima 30.2 41.4 61.4 1022.6 13.9 SSE 22.6 S 0.0 733.9
Mínima 20 20 44.4 1020.4
Total 0.0